Погода в Тикрите

Ирак     34°37′13″N   43°40′32″E
темп.,
°C
ветер,
м/с
пор.,
м/с
влажн.,
%
обл.,
%
осадки,
мм/ч
давл.,
гПа
погр.,
м
6 мая, чт
чт600:00+29сз46211 0.0 100569
03:00+26с22265 0.0 100511
06:00+27з33265 0.0 100625
09:00+33зсз22175 0.0 1006725
12:00+36з3412100 0.0 10062767
15:00+37з761115 0.0 10043631
18:00+35зюз881397 0.0 1003916
21:00+31зюз5915100 0.0 1004143
7 мая, пт
пт700:00+29зсз4823100 0.0 1004130
03:00+27сз4927100 0.0 1004131
06:00+25зсз611347 0.0 1005299
09:00+29зсз88255 0.0 1007787
12:00+33з67190 0.0 10062066
15:00+33зюз99190 0.0 10052592
18:00+32з77217 0.0 10053182
21:00+29з59260 0.0 1006159
8 мая, сб
сб800:00+27з46290 0.0 100790
03:00+25зсз58350 0.0 1006140
06:00+24ссз59370 0.0 1008185
09:00+31с55240 0.0 1009775
12:00+35ссз44180 0.0 10082812
15:00+36сз55150 0.0 10073195
18:00+35сз66150 0.0 10072546
21:00+31ссз45190 0.0 100853
9 мая, вс
вс900:00+29с33220 0.0 100815
03:00+27зсз22240 0.0 100811
06:00+27сз33220 0.0 100928
09:00+33сз22154 0.0 1009553
12:00+37сз451111 0.0 10082897
15:00+39сз56963 0.0 10053143
18:00+38сз34101 0.0 1005128
21:00+33зюз44155 0.0 100633
10 мая, пн
пн1000:00+31з451720 0.0 100647
03:00+30сз12168 0.0 100511
06:00+29зсз2218100 0.0 100616
09:00+34ссз3313100 0.0 1007631
12:00+38зюз4511100 0.0 10061803
15:00+39зюз7910100 0.0 10052675
18:00+37зюз6713100 0.0 1004475
21:00+32зюз4518100 0.0 100652